SAS2840 ENTC-ENSB

Flight info

Callsign SAS2840
Flight time N/A
Altitude 38000
Route LOMVI P853 BETMA DCT EDIKI DCT OTVIK DCT RARAG
Aircraft A20N/M-SDE2E3FGHIRWXY/LB1

Departure

Time 2026-04-27 12:56
Airport Tromsø Airport (ENTC)

Arrival

Time N/A
Airport Svalbard Airport, Longyear (ENSB)
Time Latitude Longitude Altitude Speed Heading
2026-04-27 12:19 69.68087 18.90983 34 ft 0 kts 283°
2026-04-27 12:43 69.68087 18.90984 34 ft 2 kts 283°
2026-04-27 12:43 69.68083 18.91033 35 ft 3 kts 283°
2026-04-27 12:43 69.68079 18.91082 34 ft 3 kts 283°
2026-04-27 12:43 69.68075 18.91131 33 ft 3 kts 283°
2026-04-27 12:44 69.68071 18.91180 31 ft 3 kts 283°
2026-04-27 12:44 69.68067 18.91229 34 ft 2 kts 283°
2026-04-27 12:44 69.68063 18.91277 34 ft 2 kts 283°
2026-04-27 12:44 69.68061 18.91300 34 ft 0 kts 283°
2026-04-27 12:51 69.68062 18.91296 34 ft 2 kts 283°
2026-04-27 12:51 69.68069 18.91292 34 ft 0 kts
2026-04-27 12:52 69.68087 18.91306 34 ft 8 kts 16°
2026-04-27 12:52 69.68156 18.91376 35 ft 12 kts 15°
2026-04-27 12:52 69.68242 18.91435 34 ft 14 kts 13°
2026-04-27 12:52 69.68344 18.91500 33 ft 16 kts
2026-04-27 12:53 69.68594 18.91593 32 ft 20 kts 12°
2026-04-27 12:53 69.68738 18.91690 31 ft 17 kts 13°
2026-04-27 12:53 69.68773 18.91904 30 ft 13 kts 108°
2026-04-27 12:54 69.68792 18.92169 28 ft 16 kts 38°
2026-04-27 12:54 69.68899 18.92265 29 ft 16 kts 11°
2026-04-27 12:54 69.68975 18.92318 29 ft 6 kts 84°
2026-04-27 12:54 69.68966 18.92326 29 ft 0 kts 189°
2026-04-27 12:55 69.68965 18.92325 29 ft 3 kts 194°
2026-04-27 12:55 69.68733 18.92159 29 ft 74 kts 192°
2026-04-27 12:55 69.67979 18.91651 37 ft 144 kts 193°
2026-04-27 12:56 69.66861 18.91007 382 ft 168 kts 191°
2026-04-27 12:56 69.65751 18.90358 1317 ft 159 kts 193°
2026-04-27 12:56 69.64659 18.89646 1862 ft 165 kts 194°
2026-04-27 12:56 69.63473 18.88823 2066 ft 187 kts 194°
2026-04-27 12:57 69.62128 18.87887 2313 ft 207 kts 194°
2026-04-27 12:57 69.60710 18.86909 2843 ft 212 kts 194°
2026-04-27 12:57 69.59316 18.85527 3427 ft 214 kts 214°
2026-04-27 12:57 69.58334 18.82380 3992 ft 215 kts 246°
2026-04-27 12:58 69.58097 18.78183 4581 ft 218 kts 278°
2026-04-27 12:58 69.58415 18.73927 5223 ft 219 kts 283°
2026-04-27 12:58 69.58810 18.69699 5884 ft 222 kts 295°
2026-04-27 12:58 69.59738 18.66183 6500 ft 224 kts 323°
2026-04-27 12:59 69.61155 18.64296 7055 ft 233 kts 349°
2026-04-27 12:59 69.62827 18.64652 7289 ft 256 kts 22°
2026-04-27 12:59 69.64463 18.67161 7608 ft 276 kts 30°
2026-04-27 12:59 69.66148 18.69999 8252 ft 283 kts 30°
2026-04-27 13:00 69.67597 18.72458 8785 ft 285 kts 30°
2026-04-27 13:00 69.68087 18.90983 36 ft 0 kts 283°
2026-04-27 13:21 69.68086 18.90995 33 ft 2 kts 283°
2026-04-27 13:21 69.68082 18.91041 35 ft 2 kts 283°
2026-04-27 13:21 69.68079 18.91088 34 ft 2 kts 283°
2026-04-27 13:21 69.68075 18.91134 34 ft 2 kts 283°
2026-04-27 13:22 69.68071 18.91180 31 ft 2 kts 283°
2026-04-27 13:22 69.68067 18.91227 33 ft 2 kts 283°
2026-04-27 13:22 69.68063 18.91273 34 ft 2 kts 283°
2026-04-27 13:22 69.68060 18.91319 33 ft 2 kts 283°
2026-04-27 13:23 69.68056 18.91365 32 ft 2 kts 283°
2026-04-27 13:23 69.68054 18.91398 34 ft 0 kts 310°
2026-04-27 13:24 69.68055 18.91391 34 ft 2 kts 310°
2026-04-27 13:24 69.68070 18.91366 34 ft 6 kts 337°
2026-04-27 13:25 69.68117 18.91354 35 ft 8 kts 11°
2026-04-27 13:25 69.68186 18.91402 34 ft 14 kts 13°
2026-04-27 13:25 69.68301 18.91478 34 ft 20 kts 12°
2026-04-27 13:25 69.68445 18.91503 32 ft 21 kts
2026-04-27 13:26 69.68596 18.91600 32 ft 23 kts 14°
2026-04-27 13:26 69.68757 18.91710 30 ft 16 kts 27°
2026-04-27 13:26 69.68771 18.91909 30 ft 11 kts 94°
2026-04-27 13:26 69.68770 18.91947 30 ft 0 kts 97°
2026-04-27 13:27 69.68770 18.91948 30 ft 1 kts 97°
2026-04-27 13:27 69.68753 18.92104 28 ft 12 kts 127°
2026-04-27 13:28 69.68668 18.92121 31 ft 24 kts 193°
2026-04-27 13:28 69.68239 18.91795 33 ft 103 kts 189°
2026-04-27 13:28 69.67352 18.91208 44 ft 159 kts 194°
2026-04-27 13:28 69.66251 18.90648 207 ft 153 kts 188°
2026-04-27 13:29 69.65095 18.90206 520 ft 178 kts 190°
2026-04-27 13:29 69.63874 18.89422 1405 ft 179 kts 195°
2026-04-27 13:29 69.62608 18.88482 1961 ft 201 kts 195°
2026-04-27 13:29 69.61219 18.87451 2782 ft 209 kts 195°
2026-04-27 13:30 69.60804 18.87148 3058 ft 211 kts 194°
2026-04-27 13:30 69.60505 18.86931 3287 ft 206 kts 194°
2026-04-27 13:30 69.59199 18.85774 4340 ft 204 kts 213°
2026-04-27 13:31 69.58286 18.82419 4605 ft 228 kts 255°
2026-04-27 13:31 69.58124 18.78052 5476 ft 219 kts 277°
2026-04-27 13:31 69.58396 18.73728 6090 ft 222 kts 282°
2026-04-27 13:31 69.58812 18.69458 6719 ft 224 kts 297°
2026-04-27 13:32 69.59802 18.66032 7310 ft 227 kts 325°
2026-04-27 13:32 69.61259 18.64270 7825 ft 236 kts 351°
2026-04-27 13:32 69.62950 18.64771 8034 ft 258 kts 23°
2026-04-27 13:32 69.64598 18.67354 8339 ft 279 kts 30°
2026-04-27 13:33 69.66296 18.70229 8852 ft 291 kts 30°
2026-04-27 13:33 69.68115 18.73317 8988 ft 316 kts 30°
2026-04-27 13:33 69.70086 18.76658 9024 ft 342 kts 30°
2026-04-27 13:33 69.72162 18.80161 9599 ft 344 kts 30°
2026-04-27 13:34 69.74180 18.83565 10726 ft 333 kts 30°
2026-04-27 13:34 69.76177 18.86931 11460 ft 333 kts 30°
2026-04-27 13:34 69.78183 18.90314 12112 ft 335 kts 30°
2026-04-27 13:34 69.80205 18.93725 12734 ft 338 kts 30°
2026-04-27 13:35 69.82344 18.96577 13339 ft 340 kts 17°
2026-04-27 13:35 69.84662 18.97967 13928 ft 342 kts
2026-04-27 13:35 69.87053 18.98221 14489 ft 346 kts
2026-04-27 13:35 69.89467 18.98419 15065 ft 349 kts
2026-04-27 13:36 69.91905 18.98633 15599 ft 352 kts
2026-04-27 13:36 69.94360 18.98864 16148 ft 354 kts
2026-04-27 13:36 69.96835 18.99105 16679 ft 357 kts
2026-04-27 13:36 69.99327 18.99348 17200 ft 360 kts
2026-04-27 13:37 70.01841 18.99591 17715 ft 363 kts
2026-04-27 13:37 70.04370 18.99836 18220 ft 366 kts
2026-04-27 13:37 70.06924 19.00080 18750 ft 368 kts
2026-04-27 13:37 70.09493 19.00309 19261 ft 370 kts
2026-04-27 13:38 70.12078 19.00425 19750 ft 373 kts
2026-04-27 13:38 70.14684 19.00461 20252 ft 376 kts 360°
2026-04-27 13:38 70.17312 19.00463 20724 ft 379 kts 360°
2026-04-27 13:38 70.19958 19.00465 21175 ft 381 kts 360°
2026-04-27 13:39 70.22586 19.00469 21621 ft 384 kts 360°
2026-04-27 13:39 70.25265 19.00484 22049 ft 386 kts 360°
2026-04-27 13:39 70.27081 19.00501 22343 ft 388 kts 360°
2026-04-27 13:39 70.30683 19.00550 22901 ft 392 kts
2026-04-27 13:40 70.33410 19.00597 23345 ft 394 kts
2026-04-27 13:40 70.36166 19.00650 23770 ft 397 kts
2026-04-27 13:40 70.38034 19.00688 24048 ft 399 kts
2026-04-27 13:40 70.40816 19.00743 24453 ft 401 kts
2026-04-27 13:41 70.43581 19.00789 24836 ft 403 kts
2026-04-27 13:41 70.46435 19.00831 25219 ft 406 kts
2026-04-27 13:41 70.49267 19.00873 25584 ft 408 kts
2026-04-27 13:41 70.52077 19.00916 25938 ft 410 kts
2026-04-27 13:42 70.54935 19.00958 26287 ft 413 kts
2026-04-27 13:42 70.57815 19.01000 26627 ft 415 kts 360°
2026-04-27 13:42 70.60711 19.01040 26963 ft 417 kts 360°
2026-04-27 13:42 70.63620 19.01049 27281 ft 419 kts 359°
2026-04-27 13:43 70.66541 19.00926 27599 ft 421 kts 358°
2026-04-27 13:43 70.69479 19.00699 27906 ft 423 kts 358°
2026-04-27 13:43 70.72431 19.00415 28276 ft 426 kts 358°
2026-04-27 13:43 70.75398 19.00122 28661 ft 428 kts 358°
2026-04-27 13:44 70.78382 18.99842 29045 ft 431 kts 358°
2026-04-27 13:44 70.81389 18.99587 29428 ft 433 kts 358°
2026-04-27 13:44 70.84417 18.99355 29798 ft 436 kts 358°
2026-04-27 13:44 70.87457 18.99138 30155 ft 438 kts 358°
2026-04-27 13:45 70.90513 18.98919 30502 ft 440 kts 358°
2026-04-27 13:45 70.93591 18.98691 30837 ft 443 kts 358°
2026-04-27 13:45 70.96671 18.98461 31147 ft 445 kts 358°
2026-04-27 13:45 70.99770 18.98227 31459 ft 447 kts 358°
2026-04-27 13:46 71.02894 18.97982 31754 ft 449 kts 358°
2026-04-27 13:46 71.06032 18.97730 32039 ft 451 kts 358°
2026-04-27 13:46 71.09169 18.97481 32419 ft 450 kts 358°
2026-04-27 13:46 71.12298 18.97240 32810 ft 449 kts 358°
2026-04-27 13:47 71.15421 18.97002 33187 ft 448 kts 358°
2026-04-27 13:47 71.18540 18.96770 33556 ft 448 kts 358°
2026-04-27 13:47 71.21650 18.96546 33918 ft 447 kts 358°
2026-04-27 13:47 71.24758 18.96308 34273 ft 446 kts 358°
2026-04-27 13:48 71.27856 18.96055 34626 ft 445 kts 358°
2026-04-27 13:48 71.30952 18.95788 34977 ft 445 kts 358°
2026-04-27 13:48 71.34045 18.95523 35322 ft 444 kts 358°
2026-04-27 13:48 71.37125 18.95269 35651 ft 443 kts 358°
2026-04-27 13:49 71.40205 18.95027 35966 ft 442 kts 358°
2026-04-27 13:49 71.43284 18.94792 36266 ft 442 kts 358°
2026-04-27 13:49 71.46356 18.94551 36535 ft 442 kts 358°
2026-04-27 13:49 71.49425 18.94299 36800 ft 442 kts 358°
2026-04-27 13:50 71.52500 18.94043 37048 ft 441 kts 358°
2026-04-27 13:50 71.55567 18.93782 37281 ft 441 kts 358°
2026-04-27 13:50 71.58641 18.93522 37503 ft 441 kts 358°
2026-04-27 13:50 71.61705 18.93268 37736 ft 441 kts 358°
2026-04-27 13:51 71.64779 18.93022 37927 ft 442 kts 358°
2026-04-27 13:51 71.67858 18.92770 38004 ft 445 kts 358°
2026-04-27 13:51 71.74128 18.92238 38010 ft 454 kts 358°
2026-04-27 13:52 71.80467 18.91717 38010 ft 462 kts 358°
2026-04-27 13:52 71.86933 18.91190 38010 ft 467 kts 358°